Wind_Speed
5 2 2 5 7 8 8 9 9 5 5 4 3 3 3 3 4 5 4 5 3 4 4 7 8 10 10 5 5 10 13 11 12 13 15 18 19 20 21 21 20 19 14 10 11 12 11 12 12 12 12 13 13 12 11 11 10 10 11 12 13 13 13 13 12 11 10 10 10 10 11 11 10 10 11 11 10 10 9 9 9 9 9 10 11 11
4 4 8 11 11 9 5 6 6 3 4 2 2 2 3 2 5 6 4 4 2 3 4 4 6 10 10 4 4 9 10 11 15 15 18 22 21 21 22 22 22 19 15 13 13 12 11 12 12 13 14 14 13 12 11 10 10 11 12 12 12 13 13 12 10 10 10 9 9 10 12 12 12 12 12 11 11 11 10 10 9 9 9 10 10 11
2 4 12 13 6 3 1 4 5 4 4 2 2 1 3 3 4 6 4 4 1 3 4 3 5 8 8 3 6 10 11 13 21 22 22 22 20 22 23 23 23 21 19 17 15 13 12 12 12 13 14 14 13 12 12 11 11 11 12 12 13 13 13 11 10 10 10 9 10 11 13 14 13 13 12 11 11 10 9 9 9 9 9 10 11 12
2 7 13 11 4 5 4 3 6 4 3 3 3 2 3 3 1 3 4 4 0 3 2 2 3 6 5 3 5 11 14 12 16 22 23 20 20 23 24 22 22 22 21 19 16 15 13 13 13 13 14 13 13 12 12 12 11 11 11 12 12 12 12 11 10 10 10 11 11 11 13 14 14 13 13 12 11 9 8 9 10 10 11 12 12 12
8 8 6 4 6 7 3 2 5 5 3 3 4 5 4 4 4 5 4 4 3 2 1 4 2 6 4 4 5 6 11 11 12 16 19 22 24 24 22 23 23 23 21 20 18 16 15 13 13 13 13 12 12 12 11 11 10 10 10 11 11 11 11 10 10 11 12 13 12 12 12 13 13 13 13 12 10 9 9 11 12 12 13 13 13 13
10 7 3 3 4 5 4 3 4 6 3 3 4 8 9 7 6 5 2 5 5 4 2 2 1 5 4 4 7 2 5 10 10 10 15 23 25 23 24 25 25 24 23 21 19 18 17 15 14 14 13 13 12 11 9 9 9 10 10 10 11 11 10 10 11 12 13 13 13 12 12 12 13 13 12 11 10 10 11 13 13 13 13 14 14 14
6 6 6 4 5 5 4 2 5 7 5 2 5 8 10 7 6 5 2 3 1 2 2 2 4 5 5 4 7 3 5 9 8 8 13 19 22 24 27 28 27 25 24 23 21 20 18 17 16 15 14 13 12 10 9 9 9 10 10 10 10 10 10 10 11 12 13 13 13 13 12 12 13 13 12 11 12 12 13 14 14 14 13 14 15 13
4 5 4 4 5 4 4 3 6 8 7 3 5 5 7 6 6 5 4 4 3 3 3 3 4 2 5 5 6 3 6 7 6 8 11 16 21 25 28 30 29 27 25 24 23 21 20 18 17 16 15 13 11 9 10 10 9 9 9 9 9 9 10 10 11 12 12 13 13 13 13 12 12 12 11 11 13 13 14 14 14 14 14 14 14 12
3 4 4 6 4 3 5 5 7 10 5 5 4 5 5 4 4 4 5 4 2 1 4 5 2 1 5 6 4 1 4 6 9 12 11 15 22 25 28 30 29 28 26 25 24 23 21 19 16 15 14 13 12 11 10 10 9 9 8 8 8 8 9 10 11 12 11 11 12 12 12 12 11 12 12 12 13 13 13 13 13 14 15 14 13 12
1 3 6 7 5 5 5 3 9 11 5 3 4 6 4 4 4 4 4 4 1 1 4 5 2 2 5 6 3 2 2 7 10 10 10 15 22 25 27 29 28 28 27 26 25 24 22 19 16 14 13 13 13 11 10 10 10 9 9 8 7 6 7 9 10 11 11 10 11 11 11 11 11 11 12 13 13 13 13 13 13 13 14 13 13 13
1 1 3 5 4 4 3 2 5 7 5 5 5 6 5 5 4 3 2 3 2 2 6 6 4 3 3 6 3 3 4 7 7 6 7 11 18 23 26 28 28 27 26 25 25 24 22 20 17 16 15 14 13 13 12 12 11 10 9 8 6 5 6 8 9 10 10 11 11 11 11 11 10 11 12 13 13 12 13 14 13 13 14 14 13 13
4 2 1 3 4 5 6 4 2 2 4 5 4 4 3 3 3 3 4 3 1 4 5 5 3 4 2 6 4 5 6 6 6 7 8 10 16 25 28 28 28 26 24 24 24 23 22 21 19 18 17 16 15 14 13 12 12 11 9 8 6 5 6 7 8 9 9 10 11 10 10 10 10 11 12 13 12 12 13 14 14 14 14 14 14 14
4 5 4 2 4 7 6 4 4 4 4 5 5 5 3 2 3 2 3 1 2 5 4 3 1 2 5 8 8 9 9 8 8 10 11 12 18 26 28 28 28 26 24 23 23 23 22 21 20 19 18 17 17 15 14 12 12 11 9 8 7 5 5 6 7 8 8 9 9 9 9 9 10 11 12 12 12 12 13 14 15 15 15 15 15 15
4 5 2 2 2 8 9 4 3 1 0 4 4 4 3 2 2 1 3 2 3 4 3 3 2 2 4 6 7 9 10 10 11 14 17 18 22 28 30 29 27 25 24 23 23 23 22 22 21 19 17 17 17 16 14 13 12 11 10 9 7 4 5 6 6 7 7 7 7 8 9 9 9 10 11 12 12 12 13 14 15 15 15 15 16 15
3 5 4 5 3 9 11 6 6 5 3 3 3 5 4 3 3 2 3 2 3 4 3 3 1 2 2 3 5 7 9 11 10 14 17 17 20 23 24 24 24 25 24 23 23 23 23 22 21 19 17 17 17 16 15 14 13 12 11 9 7 5 5 5 5 5 5 5 6 7 7 8 8 9 10 11 11 12 12 13 14 14 15 15 16 16
2 6 7 3 1 9 10 5 6 7 3 1 2 5 2 3 5 1 2 4 2 2 3 2 2 4 4 5 5 3 6 7 2 8 10 11 13 14 17 20 23 25 25 23 23 23 23 23 22 20 18 17 17 16 16 14 13 13 11 9 7 6 6 6 5 5 4 4 5 5 5 6 7 8 8 9 10 11 11 12 13 14 14 15 16 16
1 5 6 3 2 4 7 6 5 3 2 2 2 3 3 3 6 3 1 0 3 1 3 2 3 5 4 5 6 4 5 5 3 5 7 9 12 14 17 21 24 25 25 25 25 24 23 22 22 21 19 17 17 16 16 14 13 13 11 10 8 8 8 7 6 5 4 4 4 4 4 5 5 6 7 8 8 9 11 12 12 13 13 14 15 16
2 5 6 2 1 4 2 8 5 2 6 5 3 5 3 2 4 3 0 3 4 0 3 2 3 5 2 2 5 5 4 3 1 2 4 7 12 15 19 23 25 26 26 26 25 25 24 22 21 20 19 18 16 15 14 13 13 13 12 11 10 10 9 8 6 6 5 5 5 4 4 5 6 6 7 8 8 9 11 11 12 13 13 13 14 15
1 3 7 3 3 1 3 7 4 3 4 4 4 5 4 2 0 1 1 0 0 1 4 3 4 3 3 4 4 2 3 5 4 2 4 6 10 15 19 23 25 26 26 27 27 27 25 23 21 20 19 18 17 15 14 14 14 14 13 13 13 12 11 9 9 8 8 7 6 5 6 6 7 7 7 8 9 10 11 12 12 12 13 13 14 16
2 1 5 5 1 2 2 3 2 2 1 3 3 3 2 3 3 2 2 2 2 1 2 3 4 3 5 6 5 6 8 7 5 5 6 8 13 19 22 24 26 27 28 28 28 28 26 23 21 19 18 17 16 15 15 15 15 15 14 14 14 13 12 11 11 10 9 8 7 7 6 6 6 6 7 8 9 10 11 11 12 12 13 14 15 15
3 1 3 6 3 2 2 2 6 6 4 3 3 1 1 2 2 1 1 2 3 2 2 1 3 5 6 4 7 9 8 8 8 8 8 10 17 23 25 27 28 29 30 30 29 28 26 23 21 20 18 17 16 16 16 16 15 15 15 15 15 14 13 13 12 11 9 8 7 6 5 5 5 6 7 8 10 11 11 11 12 13 14 15 16 17
3 1 1 4 4 2 4 4 6 8 7 5 5 5 5 4 3 0 3 1 2 2 3 2 2 7 6 3 6 8 7 8 10 9 8 12 20 24 26 28 29 30 31 30 29 28 25 23 22 21 19 17 16 16 16 16 16 16 16 16 15 14 13 12 11 10 8 7 6 5 4 5 6 7 9 9 10 11 12 12 13 14 15 16 17 18
0 1 1 4 4 5 6 5 3 6 3 0 1 3 5 5 5 5 4 3 1 1 1 3 0 7 6 3 5 6 3 5 10 12 9 14 21 24 25 27 28 30 31 30 29 28 25 23 22 21 20 17 15 15 15 15 16 17 17 15 15 13 11 9 8 7 7 6 6 6 6 7 8 9 10 11 11 12 12 13 14 15 16 16 16 17
1 1 1 4 5 4 6 5 4 3 3 2 2 2 5 4 5 5 4 3 2 2 2 2 1 6 6 3 4 5 2 2 10 16 14 14 17 20 23 25 27 29 30 29 29 28 27 25 23 22 21 18 15 14 14 15 16 16 15 14 13 10 8 8 7 7 7 7 6 7 8 9 10 10 12 12 12 12 13 13 14 14 15 15 16 16
3 2 1 2 4 5 4 4 6 5 2 1 3 3 5 5 5 3 2 2 1 3 4 3 3 7 6 4 3 1 4 3 6 13 14 13 15 19 22 24 26 27 28 29 29 29 28 26 24 23 22 19 15 14 14 15 15 15 14 14 12 9 8 7 8 7 8 8 9 9 10 11 12 12 13 12 12 12 12 13 13 14 15 16 17 17
2 1 3 4 2 0 1 3 2 4 3 3 3 3 4 6 8 5 1 2 3 4 3 4 4 7 8 7 6 3 2 4 5 8 11 13 15 18 21 23 25 26 27 28 28 28 28 27 24 23 22 20 16 13 14 16 16 15 14 14 12 9 8 8 8 9 9 10 11 12 12 13 14 13 12 12 12 12 13 14 14 15 17 18 20 20
2 2 3 4 3 5 5 7 6 4 5 6 6 4 5 6 8 6 4 3 4 2 2 5 6 6 11 10 7 5 3 5 5 5 9 13 14 16 19 21 23 24 26 27 27 28 28 27 25 23 22 22 17 14 15 16 16 15 14 13 12 10 10 9 10 10 11 12 13 14 15 15 14 13 12 12 13 14 14 16 17 18 19 20 21 22
3 1 3 1 3 7 9 12 12 7 7 10 9 7 7 7 7 6 5 6 5 4 5 8 5 4 10 10 9 8 7 7 6 8 12 16 16 16 17 19 20 22 24 25 27 28 28 27 25 22 23 23 19 16 16 16 16 15 13 13 12 12 12 12 12 13 14 14 15 16 16 15 14 13 13 14 15 16 16 17 17 18 19 20 21 21
3 1 3 4 8 10 9 10 10 7 8 11 11 11 9 7 9 10 11 9 7 6 9 4 5 6 9 8 8 8 7 7 8 11 15 16 15 15 16 18 20 22 24 25 27 28 27 26 24 21 22 24 22 18 17 17 17 15 14 13 13 13 14 14 15 15 16 16 17 16 15 14 13 14 14 15 15 16 16 16 17 18 19 20 20 21
2 1 2 4 10 13 8 5 6 7 9 9 8 8 6 7 11 12 8 4 4 7 5 2 4 9 5 6 11 15 14 10 6 9 13 14 15 17 17 19 22 23 24 25 26 26 25 24 22 20 22 24 23 20 18 18 17 16 15 15 14 14 14 15 15 16 17 17 16 15 13 12 13 13 13 14 14 14 15 16 17 19 20 20 21 21
3 2 3 3 7 10 7 7 12 14 10 6 3 4 4 2 2 2 2 4 3 5 5 4 4 7 5 9 15 22 21 12 7 9 14 16 17 19 20 21 23 24 24 25 24 24 23 22 21 20 21 24 23 21 19 18 17 17 17 17 16 15 14 14 15 15 15 15 13 12 11 11 11 11 11 12 13 14 16 18 19 20 20 20 20 21
3 2 3 4 5 6 6 12 19 18 9 3 7 12 10 6 6 5 5 5 3 4 4 3 2 5 8 12 17 20 18 10 8 11 15 18 19 21 22 24 25 25 24 24 24 23 22 21 21 20 21 23 23 21 20 19 19 19 19 19 17 15 14 14 13 13 12 11 10 10 9 9 9 9 10 12 14 16 18 19 19 19 20 20 21 22
2 1 2 3 3 5 6 13 17 12 6 3 6 11 9 5 9 6 7 9 6 2 1 2 2 6 9 12 14 16 15 11 11 12 13 17 21 25 26 26 27 26 24 23 23 23 22 21 21 21 20 22 23 21 21 21 21 20 19 18 16 14 12 11 10 10 10 9 8 8 7 7 8 9 12 15 16 18 19 19 19 19 20 21 22 22
1 2 0 0 1 4 7 12 11 4 3 1 2 7 7 7 12 9 8 10 9 5 4 2 4 8 10 10 12 14 16 19 22 22 18 16 19 26 29 28 28 27 25 24 23 22 22 22 22 20 20 22 23 22 22 21 19 18 17 15 13 12 11 10 9 9 8 8 7 7 7 8 10 12 15 16 17 17 17 18 19 20 20 21 21 21
1 2 1 1 1 3 5 7 5 2 2 3 1 6 8 7 11 9 5 8 10 9 9 7 8 11 12 12 16 18 22 29 31 27 23 21 21 25 29 30 30 29 27 26 24 23 23 24 23 21 22 23 23 22 21 18 17 17 15 13 12 12 11 9 9 8 8 7 6 6 8 9 12 14 15 15 16 16 17 18 19 20 20 20 20 20
2 1 1 1 1 2 3 3 1 2 2 4 2 6 8 5 6 5 2 4 9 10 10 11 12 13 14 17 21 24 30 33 28 20 19 22 23 24 29 31 31 31 30 27 25 24 24 24 23 22 23 23 21 20 19 18 17 16 15 14 13 12 10 9 9 8 7 6 6 7 9 11 13 14 14 14 15 16 18 19 19 20 20 19 19 19
3 1 1 0 0 0 1 2 3 3 3 3 4 6 7 5 5 4 3 3 6 10 10 10 13 15 17 20 25 30 33 27 16 10 10 15 19 20 24 28 28 29 30 27 24 24 23 22 22 22 22 22 20 19 18 18 17 16 15 15 13 12 11 10 9 8 7 6 6 8 10 12 13 13 13 14 15 17 17 18 19 19 20 21 22 23
3 2 1 1 0 2 2 1 3 4 2 1 6 10 11 11 10 6 3 3 4 11 15 12 12 15 16 19 26 31 26 14 5 3 10 7 9 15 19 22 23 24 26 26 26 25 23 23 22 22 22 21 20 19 18 18 17 16 15 15 14 13 11 10 9 6 5 5 7 9 11 12 12 12 13 14 15 16 16 17 19 20 21 23 24 25
0 1 1 1 0 2 2 1 2 2 3 3 9 14 20 20 9 5 3 2 4 16 21 16 13 15 15 18 24 22 15 5 3 6 17 18 11 10 17 20 19 20 22 25 26 25 24 24 23 23 22 21 21 20 19 18 17 16 15 15 14 13 11 9 6 4 4 6 8 10 11 11 11 12 13 14 14 15 16 17 19 21 22 23 24 25
2 1 1 1 2 1 2 2 2 3 2 6 10 16 26 24 7 5 3 2 8 21 24 19 17 18 20 23 21 12 5 4 9 20 30 27 14 9 15 18 18 19 22 25 26 24 24 24 24 24 23 22 22 22 20 19 18 16 15 15 14 12 10 6 4 3 5 7 8 9 9 10 10 11 12 13 14 15 16 18 20 21 22 23 24 26
2 1 1 2 2 2 3 2 3 2 2 8 12 19 27 19 5 4 1 6 15 24 25 22 21 22 24 24 18 10 12 19 23 30 35 27 13 11 14 14 14 16 20 24 26 26 26 25 24 23 24 23 23 22 21 19 18 16 15 15 13 11 7 4 3 4 5 7 7 7 8 9 10 11 12 13 14 16 17 19 20 22 23 24 26 27
2 2 2 2 2 1 3 1 3 2 3 11 16 19 19 9 3 1 8 15 21 24 24 24 24 24 26 26 22 21 27 32 31 28 26 18 11 14 16 15 14 15 18 21 24 27 29 28 25 23 23 23 22 22 21 19 18 16 15 14 11 8 5 3 3 4 5 5 6 7 8 9 10 11 12 14 15 17 19 20 21 23 24 26 26 27
1 2 2 2 1 0 2 1 1 2 5 14 14 11 10 5 2 10 16 19 22 21 22 25 25 25 27 29 30 32 34 33 28 21 17 10 10 16 18 18 17 18 20 23 25 27 28 27 25 23 24 24 22 21 21 20 18 16 14 12 9 6 3 2 2 3 3 4 6 7 8 9 10 12 13 15 17 19 20 21 22 24 26 27 28 28
1 0 2 2 2 2 1 0 0 3 4 10 7 2 4 7 11 16 18 19 22 22 21 24 28 29 29 30 33 35 34 31 25 16 8 5 13 18 20 21 22 23 26 28 29 29 27 25 25 25 25 24 22 21 20 18 16 15 13 10 7 4 2 0 1 2 3 4 6 7 8 9 11 13 15 17 18 20 21 22 24 26 27 28 29 29
2 4 2 1 3 3 3 2 1 2 2 5 5 2 9 14 17 19 18 19 23 24 23 25 29 32 32 31 33 34 33 30 22 13 5 7 13 18 22 25 26 28 29 30 31 30 27 25 27 27 26 23 20 19 18 15 14 13 11 8 5 4 2 2 2 2 3 5 6 7 8 10 12 14 16 18 19 20 22 24 26 27 28 28 28 28
2 6 5 1 4 7 6 3 4 4 2 4 9 10 12 16 19 22 23 22 25 27 27 27 30 33 33 32 33 34 33 28 18 9 3 9 15 19 23 25 27 29 30 32 34 32 29 30 31 30 26 21 16 14 13 12 11 10 9 7 5 4 3 2 2 2 4 5 6 8 9 11 13 15 17 18 19 21 24 26 27 27 27 27 27 27
1 3 3 1 2 4 4 1 8 12 7 3 13 18 17 17 20 23 25 27 29 31 30 29 31 33 32 32 32 34 33 25 14 7 5 12 17 21 24 27 29 30 31 33 35 34 34 35 34 31 28 23 16 11 9 10 9 7 7 7 5 4 3 2 2 3 4 5 7 8 10 12 14 15 17 18 20 22 24 26 26 25 25 26 25 24
2 5 6 2 3 2 5 5 12 18 9 2 10 19 20 20 20 21 24 28 30 31 32 32 33 34 33 32 32 34 32 24 12 7 6 11 17 20 23 26 29 32 33 33 34 35 37 39 37 34 30 26 19 12 8 8 8 7 7 7 5 4 2 2 3 4 5 6 7 9 11 13 15 16 17 19 21 23 25 26 25 23 22 23 23 22
4 5 4 3 2 2 3 5 13 15 7 4 11 18 21 23 23 21 22 25 28 31 34 35 34 32 32 31 31 32 32 24 11 8 9 11 15 19 22 26 29 32 33 34 36 37 38 39 37 33 29 25 21 14 8 7 7 7 7 6 5 3 2 2 3 4 5 7 9 11 12 13 14 16 17 19 22 24 25 24 23 21 19 19 20 19
3 4 2 2 3 2 2 5 9 7 5 10 18 22 22 23 24 22 21 22 25 29 32 35 35 32 30 29 29 31 32 25 13 10 11 13 17 20 24 27 30 32 34 35 36 35 35 34 32 29 26 23 19 14 9 7 8 7 6 5 4 2 2 3 4 5 6 8 9 11 12 13 14 16 18 20 23 24 24 22 19 17 17 17 17 17
4 5 4 3 3 4 6 11 12 8 9 17 23 25 22 20 19 20 22 23 24 26 28 32 34 33 31 29 28 29 29 25 15 11 12 15 18 21 24 27 30 33 34 35 35 33 31 29 27 26 24 22 18 13 10 8 8 7 5 4 2 2 3 4 5 6 7 8 9 10 12 13 15 17 19 22 24 25 25 22 17 12 13 16 16 15
Wind_Direction
163 185 226 223 225 219 211 200 208 197 146 149 131 153 215 231 272 258 255 269 183 153 235 210 216 250 255 242 200 192 197 212 223 227 233 234 235 235 237 238 237 239 236 235 244 240 236 237 236 239 241 246 249 252 257 261 267 269 268 271 274 276 275 277 278 275 268 255 244 234 225 224 227 234 246 254 263 273 283 289 293 298 299 299 304 315
147 192 235 231 226 223 214 200 204 153 141 157 132 199 269 233 258 263 251 282 175 168 268 225 214 255 257 235 182 180 188 215 217 218 229 233 236 238 240 240 237 238 239 240 246 242 240 239 237 241 242 245 249 252 258 266 275 275 273 275 277 276 275 277 276 265 256 245 239 233 224 222 223 230 243 252 261 271 277 279 284 291 296 298 303 309
169 232 246 239 218 198 197 164 183 195 176 158 131 181 276 249 271 287 288 317 136 171 272 236 208 256 266 233 189 189 196 216 216 215 224 229 233 236 238 239 238 241 243 243 243 242 244 243 240 241 242 246 250 253 257 262 269 271 274 277 275 275 276 277 267 253 246 236 230 228 224 226 230 235 244 252 258 262 269 277 282 287 296 302 304 307
206 242 248 241 178 176 226 160 154 186 191 169 155 159 249 253 274 286 301 339 97 174 209 189 217 275 288 269 225 210 209 219 222 223 230 236 237 237 237 238 241 243 244 245 245 246 247 245 243 239 241 245 248 251 254 257 265 270 276 278 276 276 277 274 259 245 239 233 229 227 227 232 238 243 247 251 256 261 272 283 288 293 299 301 304 306
232 243 248 217 168 179 196 144 148 163 214 232 193 188 225 237 209 225 281 346 346 332 108 105 3 307 285 259 268 229 212 226 228 225 232 237 240 242 242 242 243 244 247 249 250 250 250 248 245 241 241 243 244 248 251 257 266 273 279 281 279 277 273 265 250 240 235 234 236 236 236 240 246 251 254 259 267 273 280 286 293 297 296 297 301 304
248 241 191 123 140 159 139 156 191 171 193 273 225 209 217 221 220 229 333 28 15 343 307 97 6 296 303 265 262 219 198 228 221 215 228 233 236 239 241 241 241 244 247 250 252 253 254 254 249 243 240 238 238 240 244 254 262 269 276 277 276 272 264 255 243 237 236 236 240 244 246 250 255 260 263 270 277 278 279 284 290 291 290 293 296 298
251 223 194 141 129 152 142 204 235 178 151 278 235 211 213 213 218 223 134 86 34 270 289 78 160 260 316 289 257 199 197 232 219 217 230 230 231 233 236 239 239 241 244 247 251 251 252 253 250 242 235 232 231 232 237 246 253 261 269 273 274 267 256 248 241 239 238 239 243 248 254 258 261 267 271 275 278 278 280 280 284 287 288 290 289 291
204 205 191 139 135 149 161 227 229 170 139 236 234 178 182 197 207 204 150 155 227 245 319 17 131 232 298 271 270 190 195 244 239 231 236 229 229 230 233 237 238 239 241 244 248 250 250 250 247 241 234 230 229 230 236 241 248 259 266 272 274 264 249 241 239 241 242 244 248 252 258 262 266 273 278 278 276 277 280 280 283 284 283 284 283 287
168 188 191 159 152 171 196 212 184 158 151 244 215 128 146 177 176 151 128 164 243 5 306 312 124 192 275 270 308 92 190 251 241 229 230 225 226 228 232 236 238 239 241 243 246 248 249 248 245 241 236 233 231 231 236 240 247 255 261 267 270 259 245 236 237 241 245 247 251 254 259 264 270 276 280 280 277 277 279 282 282 280 282 283 281 286
140 205 193 157 164 204 214 207 167 166 187 219 137 94 77 71 81 88 112 148 63 25 254 258 182 184 272 276 317 59 209 244 239 232 227 223 225 226 230 234 236 240 241 243 246 248 250 249 245 238 232 229 227 227 232 237 241 247 252 260 267 260 243 235 236 239 243 247 251 254 259 267 272 277 280 280 279 280 281 284 285 284 284 282 278 282
273 305 166 156 185 187 143 113 163 169 161 137 100 69 54 38 43 49 70 105 86 283 256 247 211 168 276 277 235 185 220 221 222 234 228 224 225 227 231 233 234 238 240 242 244 246 247 247 243 235 228 223 222 223 226 230 236 242 249 256 264 258 240 234 234 237 240 244 249 255 260 268 274 278 279 280 282 284 283 286 289 288 283 279 280 285
265 281 209 201 186 129 90 64 39 58 108 108 78 72 72 351 7 19 358 38 117 257 267 256 218 144 206 268 245 225 246 225 202 214 215 209 216 222 227 229 232 235 239 242 242 242 242 240 235 229 224 221 220 221 222 225 233 240 246 253 258 252 243 239 237 239 242 244 250 256 262 269 275 278 279 282 287 288 287 288 288 285 282 282 287 291
252 233 220 224 180 145 109 65 37 9 34 82 82 82 81 346 359 358 313 336 226 248 260 243 209 150 227 255 257 250 255 239 210 209 210 202 206 215 221 225 228 231 235 239 239 238 237 232 228 224 220 218 217 217 219 222 231 239 243 249 254 252 247 243 240 241 243 247 254 260 266 272 275 278 281 285 291 292 289 287 285 284 286 290 293 294
292 290 211 173 203 169 153 135 141 234 110 131 127 113 120 102 62 312 280 300 270 261 269 251 238 277 277 270 249 240 250 251 233 219 215 211 208 211 216 220 223 226 231 235 235 235 233 226 223 222 219 218 217 216 217 221 228 234 238 243 249 243 240 243 243 245 245 248 255 260 267 273 277 282 287 290 293 294 292 291 291 292 294 297 299 299
255 305 220 181 192 177 178 179 159 142 128 165 148 123 141 151 143 224 234 210 261 280 284 275 221 192 238 257 231 231 265 280 259 227 218 218 215 210 210 212 215 221 227 230 231 230 229 224 220 220 220 220 219 217 218 221 225 228 231 237 240 233 237 243 244 247 250 252 256 259 268 276 281 287 293 296 300 302 302 300 300 302 304 304 306 306
226 270 249 243 182 171 182 177 131 113 89 204 121 105 147 182 149 152 204 180 200 307 282 265 227 215 226 262 274 281 298 309 263 200 199 205 208 202 201 204 211 219 223 224 226 226 226 224 221 220 219 220 220 218 219 221 222 223 224 228 230 226 230 234 232 235 242 246 253 262 274 282 288 297 304 310 313 311 310 308 309 312 312 311 311 310
239 266 278 317 338 195 182 151 129 141 155 153 133 158 209 171 125 110 237 313 61 66 277 273 256 288 318 300 311 0 360 360 73 154 171 179 184 188 197 202 208 216 219 220 220 220 221 222 222 221 220 220 220 219 220 219 220 220 220 223 225 223 224 225 224 226 233 241 252 267 283 297 305 317 324 329 329 325 321 322 321 320 319 318 318 316
222 276 288 241 262 300 131 112 71 57 130 130 186 203 183 101 88 99 142 351 38 149 284 298 247 289 340 304 321 7 14 326 301 138 131 159 175 187 199 204 210 215 217 218 218 218 219 220 223 223 222 222 222 222 222 220 219 218 219 221 223 225 225 226 231 235 242 250 258 273 290 305 314 325 333 336 337 335 333 334 329 323 323 324 323 322
248 284 292 251 165 305 77 91 39 10 109 126 178 173 128 112 157 71 107 281 338 257 291 301 279 263 201 224 285 293 218 237 249 165 140 167 185 194 202 205 209 212 215 217 218 219 218 218 221 224 224 224 223 223 223 221 220 218 218 220 221 225 226 230 237 241 246 253 265 282 295 303 311 321 328 329 332 335 337 337 333 328 328 328 328 327
290 176 283 298 145 140 70 88 183 222 11 46 95 123 103 131 164 157 145 166 188 235 265 308 323 272 225 219 209 215 217 211 201 184 186 198 199 200 203 205 207 210 213 216 217 217 217 217 218 221 224 226 224 224 224 222 221 219 218 220 222 226 229 232 238 244 252 262 275 287 294 301 307 311 313 318 324 329 333 334 335 337 336 334 333 330
317 162 257 301 318 152 154 195 189 188 181 128 112 158 155 95 100 198 197 139 142 164 191 279 316 271 250 215 192 208 210 196 190 190 197 207 206 206 206 207 208 210 214 216 215 216 217 218 218 218 223 228 227 226 226 224 223 221 222 224 226 229 232 235 241 251 261 269 276 283 295 302 300 298 301 310 317 321 326 330 336 339 337 334 333 331
358 15 251 294 305 207 218 232 193 193 199 173 165 183 166 118 90 170 285 290 127 150 172 160 278 275 260 213 213 218 202 194 190 185 196 208 209 210 210 210 211 213 216 216 215 215 217 219 217 216 220 225 228 228 227 227 226 225 226 227 231 235 236 239 243 249 256 259 264 275 288 289 290 295 300 307 312 316 322 327 331 333 331 331 331 330
214 71 325 269 256 231 255 275 178 187 211 153 190 174 138 124 135 166 232 259 190 153 159 123 223 275 264 231 244 249 247 220 189 180 197 212 211 211 211 212 214 216 218 218 216 215 218 221 219 215 217 221 227 230 229 229 227 226 227 229 233 236 234 231 231 234 241 249 260 273 282 287 293 299 302 306 310 315 319 323 326 327 326 325 323 322
323 52 325 285 285 283 289 322 21 70 99 73 285 144 126 164 179 171 181 173 157 181 153 104 265 271 275 280 258 235 213 201 190 189 199 211 213 213 212 213 215 217 219 218 217 217 220 223 221 215 214 217 223 227 227 227 224 222 221 219 220 218 210 210 218 229 241 252 266 279 288 295 300 303 305 309 312 313 314 315 316 317 315 312 309 308
339 353 10 346 343 344 332 339 354 359 48 205 251 171 153 171 156 131 135 131 285 235 159 142 246 261 273 316 348 158 142 142 196 200 202 210 213 212 211 213 215 216 218 217 217 218 221 225 223 216 212 212 217 223 223 218 213 209 208 207 207 206 204 214 229 241 252 262 273 283 291 297 300 302 304 305 305 303 301 302 303 303 302 300 299 299
348 22 62 69 55 281 220 218 278 337 326 291 272 207 184 162 152 152 149 166 247 252 157 159 231 266 290 321 350 355 163 182 216 210 207 214 219 214 210 210 212 213 216 217 217 219 222 226 225 218 210 208 212 218 217 211 205 204 206 209 213 217 223 234 244 255 265 273 281 286 291 294 295 296 294 291 291 291 292 294 295 296 297 297 299 300
102 99 77 112 177 218 240 255 268 314 301 278 281 245 210 194 177 152 115 169 200 186 202 222 222 268 296 301 307 301 253 223 228 214 210 214 217 218 213 209 211 213 215 217 218 220 223 226 227 220 210 207 209 212 212 210 209 212 215 220 225 230 238 247 255 265 273 278 283 285 288 291 290 285 282 281 285 289 293 296 296 297 300 301 303 305
98 34 2 38 249 242 248 266 274 284 271 264 272 258 222 202 182 160 181 204 156 128 262 253 199 225 269 272 274 267 242 226 225 215 216 214 209 211 211 208 211 213 214 217 219 220 223 226 227 222 211 207 210 213 214 214 216 221 227 233 239 245 250 256 262 270 275 278 283 285 285 286 281 276 277 282 288 294 297 299 301 303 306 309 310 311
114 250 318 338 315 288 268 263 265 278 278 262 253 247 231 190 177 195 218 209 158 182 249 250 157 211 256 281 291 278 250 235 225 213 214 212 205 203 203 203 208 213 214 216 218 221 224 227 228 224 213 207 211 217 220 221 223 226 234 241 249 254 257 262 265 269 275 279 282 282 279 277 275 276 282 287 293 298 302 305 308 311 314 315 315 314
88 288 297 326 316 308 305 282 282 316 314 284 253 243 235 192 189 202 217 220 198 223 256 54 178 230 267 337 323 313 303 286 252 218 210 206 202 199 198 202 208 212 215 218 220 221 223 226 227 225 215 208 211 219 223 225 228 232 240 247 253 258 261 263 264 268 274 277 276 273 270 270 275 281 287 293 299 304 307 311 314 316 318 318 318 319
30 309 298 344 325 312 324 331 326 331 323 301 329 354 1 69 178 221 357 4 320 280 318 1 240 249 321 344 325 321 313 286 229 209 206 204 204 200 198 203 209 213 217 220 222 221 221 223 223 222 217 210 212 219 224 229 233 237 244 249 254 260 261 261 264 267 269 267 261 260 263 270 278 285 293 300 305 309 314 318 320 321 322 323 324 326
35 326 306 14 348 303 328 340 328 325 323 348 24 1 356 48 67 42 42 31 343 286 303 332 287 286 326 331 324 326 325 298 245 227 211 203 205 204 203 207 209 212 216 219 222 222 220 219 218 218 215 210 212 218 225 232 237 239 245 249 253 255 254 256 259 258 254 250 250 257 266 276 284 293 303 309 314 318 321 323 324 326 328 329 330 332
85 27 334 20 340 290 325 331 317 316 335 23 24 345 331 72 82 61 53 35 7 337 357 8 317 301 315 326 324 325 328 317 288 265 235 215 209 208 210 213 211 212 215 218 223 222 218 216 215 214 213 210 212 218 227 236 240 240 242 244 244 243 241 242 243 239 240 242 250 261 272 284 297 307 315 318 321 323 325 326 328 331 332 333 334 334
165 126 12 29 296 291 321 325 315 339 56 51 29 353 345 69 79 65 51 33 18 25 43 8 307 321 327 328 324 317 311 306 298 286 269 248 226 215 215 216 215 214 215 218 223 222 215 214 214 214 213 209 211 221 230 234 233 230 229 227 224 221 221 223 224 227 236 242 250 267 281 296 310 317 321 322 324 326 328 330 332 334 334 335 336 337
234 147 136 140 211 286 330 346 345 67 95 235 182 24 9 66 86 78 62 34 19 17 21 8 344 342 338 326 321 314 305 305 303 290 271 256 243 229 222 220 217 216 216 218 221 217 210 209 212 211 208 207 213 222 225 220 213 209 205 201 201 202 203 211 219 225 234 242 254 275 292 308 319 324 325 327 330 330 331 332 334 336 337 339 340 340
232 205 130 117 265 296 1 16 318 199 290 294 307 18 10 28 53 38 14 16 11 6 8 2 350 344 339 332 328 323 317 314 307 286 262 253 247 238 231 227 223 220 219 219 218 211 205 207 211 209 205 206 212 214 209 200 195 193 187 184 189 193 197 209 219 222 230 246 267 288 309 322 327 329 331 332 332 331 333 335 338 339 339 339 339 337
192 296 46 73 252 50 9 292 265 272 310 331 333 344 349 333 320 320 277 286 352 359 354 352 350 346 341 336 333 330 329 323 305 283 273 255 245 238 234 234 232 226 221 218 214 208 205 208 209 206 205 204 202 199 194 188 186 186 184 183 187 193 201 211 216 220 236 261 288 311 326 330 330 331 333 333 333 334 337 340 340 339 337 336 335 333
184 232 278 250 224 69 59 312 331 326 274 280 320 319 322 309 280 247 232 258 331 351 348 348 350 344 339 336 335 336 338 329 278 349 16 342 260 234 226 231 237 231 220 212 209 205 203 205 204 201 201 196 188 185 185 183 182 186 186 185 189 196 203 208 211 224 254 287 315 328 332 331 331 333 335 335 337 339 341 342 340 339 338 337 336 335
238 284 35 76 176 69 91 178 292 267 229 324 333 321 325 326 301 206 189 238 328 342 343 346 344 338 336 334 332 335 343 338 256 338 355 349 321 248 224 226 233 229 218 210 209 207 202 199 197 193 192 190 182 178 178 180 182 186 187 187 191 196 198 199 209 239 285 313 327 330 330 331 334 336 337 338 340 343 342 341 340 340 340 339 338 338
339 346 44 126 194 191 142 181 261 236 251 348 341 325 328 334 352 132 161 257 323 331 335 339 334 330 333 332 331 335 343 310 291 304 313 318 314 259 229 226 229 224 213 206 205 203 197 195 193 189 186 186 181 175 175 180 183 185 186 185 186 190 190 193 216 270 308 322 331 332 332 336 338 339 341 342 344 344 342 340 339 339 339 339 339 339
304 309 254 174 178 193 175 198 284 257 337 348 337 331 332 337 25 98 284 297 316 321 325 331 329 326 330 330 330 324 302 299 301 304 306 304 283 235 217 213 217 215 207 202 198 194 191 191 191 188 184 182 180 175 175 182 184 182 181 181 183 185 184 200 249 298 321 330 336 338 340 345 344 343 345 345 345 343 339 338 339 339 340 341 341 340
317 327 301 200 165 167 168 201 287 257 5 350 339 339 346 359 94 324 301 304 312 315 321 327 326 327 331 330 327 320 313 314 316 314 311 302 254 213 200 192 188 188 190 188 182 182 185 184 182 183 179 175 175 175 178 184 185 181 179 181 182 184 188 227 283 322 338 341 347 349 350 350 347 347 348 345 343 341 339 340 342 343 343 343 343 343
282 311 310 259 238 296 156 159 291 254 347 353 347 347 6 30 316 300 302 308 315 318 324 327 326 330 333 331 330 327 324 326 329 322 311 288 218 198 190 182 176 175 178 176 171 170 174 174 177 183 180 174 175 178 182 187 187 181 181 183 181 181 197 251 322 353 357 355 358 356 353 351 350 349 347 343 341 341 342 345 347 346 346 347 347 347
248 5 321 290 335 15 126 87 243 214 299 351 9 355 333 335 321 313 306 308 318 325 329 329 328 332 335 333 332 333 333 334 334 325 305 225 192 187 179 172 172 174 177 177 174 170 168 168 172 176 175 173 177 180 183 191 192 184 182 184 175 167 177 107 36 25 13 7 2 356 355 354 352 348 344 342 342 344 347 349 349 349 350 351 351 350
88 87 78 300 324 322 277 292 17 176 241 359 27 330 308 321 330 331 323 314 318 327 332 331 330 333 337 337 335 335 339 340 335 322 291 183 174 173 169 167 170 173 173 173 172 172 173 174 172 170 167 166 171 177 183 195 200 192 184 176 159 148 135 94 78 39 16 10 2 359 359 355 349 344 343 344 345 347 349 350 351 353 354 354 353 352
104 100 87 51 311 303 282 280 8 7 321 9 14 353 329 327 332 335 334 327 325 329 332 331 332 333 337 339 338 337 342 344 335 315 236 171 166 166 166 164 164 167 170 169 169 172 175 174 172 170 166 161 164 175 180 186 197 197 183 163 144 136 124 93 65 20 13 9 4 2 357 349 345 345 346 348 349 350 351 352 355 356 355 355 355 353
77 75 35 331 262 315 298 275 3 346 315 343 7 355 344 340 337 334 331 326 326 330 332 332 334 335 337 339 339 338 343 345 333 300 204 171 166 164 165 164 163 166 170 170 172 176 176 171 168 166 163 160 162 171 173 172 178 179 162 143 131 127 116 71 20 11 14 12 4 358 352 348 347 348 349 350 349 350 352 355 358 358 355 354 355 353
322 2 351 255 192 303 277 277 344 343 318 295 359 345 335 334 334 331 328 324 322 326 331 333 334 335 336 339 340 340 344 345 328 277 219 183 172 167 166 166 165 167 169 170 172 174 171 167 164 164 164 163 165 171 177 170 162 149 136 128 122 115 93 33 19 18 14 6 359 354 351 350 349 349 350 349 349 350 354 356 358 358 355 354 353 352
286 320 319 262 259 286 256 295 342 346 323 290 329 331 328 328 325 323 326 326 322 323 328 332 335 336 336 338 341 343 345 346 326 265 229 200 185 177 172 170 169 169 169 169 170 171 167 164 163 163 164 164 165 171 178 165 144 131 124 120 110 95 53 22 21 14 4 359 357 354 352 349 349 350 349 348 348 351 355 357 354 352 353 353 351 349
280 280 267 294 304 265 231 319 332 333 295 297 312 320 324 327 327 324 323 324 322 320 323 329 333 336 339 342 344 344 345 344 324 270 233 203 188 180 173 172 171 169 168 167 166 166 164 162 162 162 160 157 158 163 168 158 139 127 120 112 97 73 27 17 14 4 359 358 356 354 351 350 350 349 347 347 349 351 354 358 355 346 345 351 352 349
237 254 258 266 276 275 298 314 312 298 286 296 307 317 323 329 335 330 323 323 322 319 321 326 329 333 337 342 346 346 344 342 325 274 231 203 190 180 174 173 172 169 167 166 164 162 160 160 161 160 154 149 149 154 160 155 139 127 115 101 84 41 15 9 3 357 357 359 357 355 354 352 350 348 347 348 349 349 350 355 359 351 344 349 352 348
Height
1474 1479 1481 1479 1476 1473 1473 1473 1473 1474 1477 1479 1480 1482 1483 1484 1482 1475 1472 1469 1468 1472 1473 1472 1472 1469 1466 1467 1470 1471 1472 1473 1473 1473 1472 1472 1473 1474 1475 1475 1475 1476 1476 1477 1479 1480 1481 1483 1484 1485 1486 1487 1487 1488 1489 1489 1490 1491 1491 1492 1493 1493 1494 1494 1494 1494 1494 1494 1495 1495 1496 1497 1497 1498 1498 1498 1498 1498 1498 1498 1497 1497 1497 1496 1496 1495
1474 1481 1478 1471 1469 1468 1470 1472 1473 1475 1477 1478 1480 1482 1483 1485 1481 1472 1470 1469 1468 1472 1472 1470 1472 1469 1465 1466 1468 1470 1471 1471 1469 1470 1470 1469 1470 1472 1472 1473 1474 1474 1475 1476 1477 1478 1480 1481 1482 1484 1485 1486 1486 1487 1488 1489 1489 1490 1490 1491 1492 1492 1493 1493 1493 1493 1493 1494 1494 1495 1496 1496 1497 1497 1497 1497 1497 1497 1496 1496 1496 1496 1496 1495 1495 1495
1480 1480 1471 1464 1466 1468 1470 1472 1474 1476 1477 1479 1481 1483 1484 1483 1479 1473 1469 1469 1469 1471 1471 1471 1471 1467 1464 1466 1467 1466 1466 1466 1466 1467 1467 1467 1469 1470 1470 1471 1472 1473 1474 1475 1476 1477 1478 1480 1481 1483 1483 1484 1485 1486 1487 1488 1489 1489 1490 1490 1491 1491 1492 1492 1492 1492 1493 1494 1494 1494 1495 1495 1496 1496 1496 1496 1496 1496 1495 1495 1495 1495 1495 1494 1494 1494
1483 1475 1464 1462 1466 1468 1470 1472 1474 1477 1478 1479 1481 1483 1483 1480 1480 1477 1471 1470 1469 1470 1470 1471 1471 1467 1464 1465 1464 1463 1463 1463 1465 1466 1466 1468 1468 1467 1468 1470 1471 1472 1472 1473 1474 1476 1477 1478 1480 1481 1482 1483 1484 1485 1486 1487 1488 1488 1489 1489 1490 1491 1491 1491 1491 1492 1493 1493 1493 1494 1494 1494 1495 1495 1495 1495 1495 1494 1494 1494 1494 1494 1494 1493 1493 1493
1474 1465 1461 1463 1465 1467 1469 1472 1475 1477 1479 1479 1478 1480 1479 1476 1478 1476 1473 1471 1470 1470 1470 1471 1475 1469 1463 1464 1462 1461 1464 1464 1464 1465 1466 1466 1466 1466 1468 1468 1469 1470 1471 1472 1473 1474 1476 1477 1479 1480 1481 1482 1483 1484 1485 1486 1487 1487 1488 1489 1489 1490 1490 1490 1491 1492 1492 1492 1493 1493 1493 1493 1494 1494 1494 1494 1494 1493 1493 1493 1493 1493 1493 1492 1492 1492
1468 1462 1461 1463 1465 1467 1469 1472 1474 1475 1477 1478 1475 1473 1473 1472 1473 1473 1474 1474 1476 1477 1471 1473 1482 1474 1463 1464 1462 1461 1464 1462 1462 1464 1463 1463 1464 1465 1466 1465 1467 1468 1469 1471 1471 1473 1474 1476 1478 1479 1480 1481 1482 1483 1484 1485 1486 1487 1488 1488 1488 1489 1489 1490 1490 1491 1491 1491 1492 1492 1492 1493 1493 1493 1493 1493 1493 1492 1492 1492 1492 1492 1492 1492 1492 1491
1464 1460 1460 1462 1465 1467 1470 1472 1470 1471 1477 1479 1471 1466 1468 1470 1472 1473 1474 1477 1481 1480 1473 1473 1482 1479 1467 1459 1457 1460 1463 1461 1462 1462 1460 1461 1462 1462 1463 1463 1465 1466 1467 1469 1470 1471 1473 1474 1476 1478 1479 1480 1481 1483 1484 1485 1486 1486 1487 1487 1488 1488 1488 1489 1490 1490 1490 1491 1491 1491 1492 1492 1492 1492 1492 1492 1492 1491 1491 1491 1490 1491 1491 1491 1491 1490
1457 1459 1460 1461 1464 1468 1471 1470 1466 1467 1475 1475 1466 1463 1466 1468 1470 1472 1473 1478 1479 1476 1475 1474 1476 1481 1474 1460 1457 1461 1461 1461 1462 1460 1458 1458 1459 1459 1459 1461 1462 1464 1465 1467 1469 1470 1472 1473 1475 1477 1478 1479 1481 1482 1483 1484 1485 1485 1486 1487 1487 1487 1488 1488 1489 1489 1489 1490 1490 1491 1491 1491 1491 1490 1491 1491 1491 1490 1490 1489 1489 1490 1490 1490 1489 1489
1452 1458 1459 1460 1465 1468 1466 1461 1460 1463 1468 1467 1462 1463 1466 1466 1469 1471 1473 1477 1480 1479 1479 1476 1474 1482 1477 1460 1460 1463 1460 1460 1458 1455 1455 1454 1455 1456 1456 1458 1459 1462 1464 1465 1467 1469 1470 1472 1474 1476 1477 1479 1480 1481 1482 1483 1484 1485 1486 1486 1486 1486 1487 1487 1488 1488 1489 1489 1489 1490 1490 1490 1490 1490 1490 1490 1489 1489 1489 1488 1488 1488 1489 1489 1488 1487
1452 1455 1454 1457 1462 1462 1458 1456 1457 1459 1461 1461 1462 1464 1466 1469 1471 1473 1474 1474 1478 1482 1479 1474 1473 1480 1476 1458 1459 1464 1460 1457 1452 1449 1450 1449 1451 1453 1453 1456 1457 1460 1462 1464 1466 1467 1469 1471 1473 1475 1476 1478 1479 1480 1481 1482 1483 1484 1485 1485 1485 1486 1486 1486 1487 1487 1488 1488 1488 1489 1489 1489 1489 1489 1489 1489 1488 1488 1488 1487 1487 1487 1487 1487 1487 1486
1451 1451 1450 1453 1454 1453 1454 1456 1457 1457 1458 1459 1461 1464 1466 1469 1470 1474 1476 1474 1480 1483 1476 1473 1472 1476 1477 1460 1453 1457 1451 1446 1446 1446 1448 1447 1449 1451 1451 1454 1455 1458 1460 1462 1464 1466 1468 1470 1472 1474 1475 1477 1478 1479 1480 1481 1482 1483 1484 1484 1485 1485 1485 1486 1486 1487 1487 1488 1487 1488 1488 1488 1488 1488 1488 1488 1487 1487 1487 1486 1486 1486 1486 1486 1486 1485
1451 1452 1451 1449 1449 1451 1454 1457 1459 1458 1458 1459 1461 1465 1470 1474 1473 1475 1477 1476 1485 1486 1476 1476 1475 1476 1479 1461 1446 1447 1442 1441 1443 1442 1443 1445 1446 1447 1448 1451 1453 1456 1458 1460 1463 1464 1466 1468 1470 1472 1474 1475 1477 1478 1479 1480 1481 1482 1483 1484 1484 1484 1485 1485 1486 1486 1486 1487 1487 1487 1487 1487 1488 1487 1487 1487 1486 1487 1486 1486 1486 1485 1485 1485 1484 1483
1452 1450 1448 1447 1446 1449 1454 1459 1463 1462 1460 1461 1463 1469 1479 1486 1487 1487 1486 1486 1490 1484 1475 1478 1477 1475 1473 1454 1441 1442 1439 1438 1439 1437 1438 1440 1441 1443 1445 1448 1451 1454 1457 1458 1461 1463 1465 1467 1468 1471 1472 1474 1475 1476 1478 1479 1480 1481 1482 1483 1483 1484 1484 1485 1485 1486 1486 1486 1486 1487 1487 1487 1487 1487 1486 1486 1486 1486 1485 1485 1485 1484 1484 1483 1482 1482
1457 1450 1446 1449 1448 1445 1449 1456 1463 1465 1463 1463 1465 1470 1481 1491 1499 1499 1498 1498 1493 1481 1475 1479 1478 1474 1465 1447 1437 1438 1434 1433 1434 1434 1435 1436 1438 1440 1442 1446 1449 1452 1455 1457 1459 1461 1463 1465 1467 1469 1471 1472 1474 1475 1477 1478 1479 1480 1481 1482 1483 1483 1484 1484 1485 1485 1485 1485 1486 1486 1486 1486 1486 1486 1486 1486 1485 1485 1485 1484 1484 1483 1482 1481 1480 1480
1467 1459 1447 1446 1445 1441 1442 1445 1450 1455 1461 1464 1463 1466 1474 1481 1489 1494 1492 1492 1489 1481 1478 1479 1475 1469 1459 1443 1436 1434 1432 1431 1431 1432 1434 1435 1437 1439 1441 1445 1448 1451 1454 1456 1458 1460 1462 1464 1466 1468 1470 1471 1473 1474 1475 1477 1478 1479 1480 1481 1482 1483 1484 1484 1484 1485 1485 1485 1485 1485 1485 1485 1486 1485 1485 1485 1485 1485 1484 1483 1483 1482 1481 1480 1479 1478
1468 1461 1444 1439 1438 1437 1439 1439 1441 1450 1461 1466 1463 1466 1472 1468 1471 1484 1489 1487 1487 1485 1481 1477 1470 1460 1450 1438 1434 1435 1432 1431 1431 1432 1434 1436 1438 1441 1443 1445 1447 1449 1452 1455 1457 1459 1460 1463 1465 1467 1468 1470 1472 1473 1474 1476 1477 1478 1480 1481 1482 1483 1483 1483 1484 1484 1485 1485 1485 1485 1485 1485 1485 1485 1485 1485 1484 1484 1483 1482 1481 1481 1480 1479 1478 1477
1464 1457 1441 1439 1439 1436 1438 1438 1440 1446 1455 1465 1467 1465 1466 1460 1461 1477 1489 1490 1491 1490 1482 1476 1467 1455 1448 1439 1433 1434 1432 1430 1433 1432 1434 1437 1438 1440 1442 1443 1446 1448 1451 1453 1455 1457 1459 1461 1463 1465 1467 1469 1470 1472 1473 1475 1476 1478 1479 1480 1481 1482 1483 1483 1484 1484 1484 1485 1485 1485 1485 1485 1485 1485 1485 1484 1484 1483 1482 1482 1481 1479 1479 1477 1476 1475
1462 1458 1442 1438 1442 1440 1438 1439 1440 1441 1446 1459 1465 1460 1459 1461 1462 1471 1482 1487 1492 1491 1481 1475 1469 1460 1458 1449 1435 1433 1433 1431 1434 1434 1435 1438 1438 1440 1441 1442 1445 1446 1449 1452 1454 1456 1458 1460 1462 1464 1466 1468 1469 1471 1473 1474 1476 1477 1478 1480 1481 1482 1482 1483 1483 1484 1484 1484 1485 1485 1485 1485 1485 1485 1484 1484 1483 1483 1482 1481 1480 1478 1477 1476 1475 1474
1462 1463 1448 1438 1442 1442 1438 1442 1448 1446 1442 1448 1452 1450 1455 1466 1470 1474 1481 1484 1489 1493 1483 1475 1472 1466 1460 1450 1435 1432 1433 1431 1434 1436 1437 1437 1437 1438 1440 1441 1444 1446 1448 1451 1453 1455 1457 1458 1461 1462 1464 1467 1468 1470 1472 1474 1475 1476 1478 1479 1480 1481 1482 1482 1483 1483 1484 1484 1484 1485 1485 1485 1484 1484 1484 1483 1483 1482 1481 1480 1478 1477 1476 1475 1474 1473
1462 1466 1456 1441 1439 1442 1441 1446 1454 1453 1446 1445 1448 1450 1453 1460 1466 1470 1475 1475 1479 1489 1486 1476 1469 1458 1448 1441 1432 1429 1430 1430 1433 1435 1435 1436 1436 1436 1438 1440 1442 1444 1446 1449 1451 1453 1455 1457 1460 1461 1463 1465 1467 1469 1471 1473 1474 1475 1477 1478 1479 1480 1481 1481 1482 1482 1483 1484 1484 1484 1484 1484 1484 1484 1483 1483 1482 1481 1480 1479 1477 1476 1475 1474 1473 1472
1461 1464 1461 1447 1441 1444 1445 1445 1449 1450 1448 1449 1453 1457 1456 1457 1463 1466 1468 1470 1471 1478 1485 1482 1471 1450 1434 1432 1428 1424 1425 1427 1429 1431 1432 1433 1433 1434 1436 1437 1440 1442 1444 1446 1449 1451 1453 1456 1458 1461 1463 1464 1466 1469 1470 1471 1473 1474 1476 1477 1477 1479 1479 1480 1481 1482 1483 1483 1483 1483 1483 1483 1483 1483 1482 1482 1481 1480 1479 1478 1476 1475 1474 1473 1472 1470
1465 1467 1467 1459 1450 1446 1441 1438 1439 1441 1442 1443 1447 1452 1453 1456 1468 1474 1474 1472 1468 1470 1476 1480 1473 1448 1427 1427 1425 1421 1422 1423 1425 1428 1429 1430 1431 1432 1434 1435 1438 1440 1442 1444 1447 1450 1452 1454 1457 1460 1461 1463 1465 1467 1469 1470 1472 1473 1474 1476 1477 1477 1478 1479 1480 1481 1482 1482 1482 1482 1482 1482 1482 1481 1481 1480 1479 1478 1477 1476 1475 1474 1473 1472 1471 1469
1467 1470 1471 1465 1453 1444 1438 1434 1435 1436 1437 1439 1442 1445 1449 1454 1465 1474 1474 1470 1468 1471 1471 1474 1472 1447 1424 1425 1426 1422 1423 1422 1423 1426 1427 1428 1429 1430 1432 1434 1437 1439 1440 1443 1446 1448 1451 1453 1456 1459 1460 1463 1464 1466 1468 1469 1471 1472 1473 1475 1475 1476 1477 1478 1479 1480 1481 1481 1481 1481 1481 1481 1481 1480 1479 1479 1478 1477 1476 1475 1474 1473 1472 1470 1469 1468
1466 1471 1473 1463 1449 1441 1437 1434 1433 1433 1437 1442 1443 1443 1448 1452 1454 1458 1463 1463 1465 1469 1467 1470 1472 1447 1423 1424 1425 1422 1423 1423 1423 1424 1425 1426 1428 1429 1432 1433 1436 1438 1439 1442 1445 1447 1450 1452 1455 1457 1459 1462 1463 1465 1467 1468 1469 1471 1472 1474 1474 1475 1477 1478 1479 1479 1479 1480 1480 1480 1480 1480 1479 1479 1478 1478 1477 1476 1475 1474 1472 1471 1470 1468 1467 1465
1469 1473 1474 1468 1459 1451 1446 1444 1443 1440 1441 1444 1444 1442 1444 1448 1450 1453 1458 1460 1463 1465 1461 1465 1466 1444 1423 1423 1423 1421 1422 1423 1424 1425 1424 1426 1427 1428 1430 1432 1434 1436 1438 1441 1444 1446 1448 1450 1453 1456 1458 1461 1462 1464 1466 1467 1468 1470 1471 1472 1473 1475 1476 1477 1478 1478 1478 1479 1479 1479 1479 1478 1478 1477 1477 1476 1475 1474 1473 1472 1470 1469 1468 1466 1465 1463
1473 1476 1477 1480 1480 1473 1466 1463 1460 1456 1453 1447 1442 1441 1443 1446 1449 1452 1456 1460 1464 1465 1461 1459 1455 1438 1423 1422 1422 1422 1422 1422 1423 1425 1425 1426 1427 1427 1429 1431 1433 1435 1437 1440 1442 1444 1447 1449 1451 1454 1457 1460 1462 1463 1465 1466 1468 1469 1470 1471 1473 1474 1475 1476 1476 1477 1477 1478 1478 1477 1477 1477 1476 1475 1474 1473 1472 1472 1471 1469 1468 1467 1466 1464 1463 1461
1475 1477 1479 1485 1487 1483 1477 1471 1464 1464 1464 1455 1444 1441 1442 1445 1446 1447 1454 1458 1458 1461 1459 1450 1443 1438 1429 1423 1422 1423 1424 1423 1423 1424 1424 1425 1426 1427 1429 1430 1432 1434 1436 1439 1441 1443 1445 1447 1450 1453 1456 1458 1461 1462 1464 1465 1467 1468 1469 1470 1472 1473 1474 1474 1475 1476 1476 1476 1476 1476 1475 1474 1473 1473 1472 1471 1470 1470 1469 1468 1467 1465 1464 1462 1461 1459
1476 1477 1478 1481 1480 1478 1475 1469 1463 1464 1466 1459 1450 1444 1441 1444 1446 1448 1452 1450 1448 1457 1457 1443 1439 1442 1433 1424 1422 1421 1422 1423 1422 1422 1422 1423 1425 1427 1428 1430 1432 1434 1436 1438 1440 1442 1444 1446 1448 1451 1454 1457 1459 1461 1463 1464 1466 1467 1468 1469 1471 1472 1472 1473 1474 1474 1474 1474 1474 1473 1473 1472 1471 1470 1470 1470 1469 1468 1467 1466 1465 1463 1462 1461 1459 1457
1478 1479 1477 1477 1475 1471 1468 1465 1462 1461 1460 1454 1449 1444 1439 1441 1445 1446 1446 1442 1442 1449 1448 1440 1442 1441 1430 1425 1426 1423 1422 1422 1420 1420 1421 1422 1424 1426 1428 1429 1431 1433 1434 1436 1438 1440 1442 1444 1447 1449 1453 1456 1458 1460 1461 1463 1464 1466 1467 1468 1469 1470 1471 1471 1472 1472 1472 1472 1472 1471 1470 1470 1470 1469 1469 1468 1467 1467 1466 1465 1464 1462 1461 1459 1457 1456
1478 1480 1478 1478 1475 1466 1462 1462 1459 1458 1458 1451 1444 1441 1438 1437 1440 1440 1440 1443 1443 1440 1439 1441 1443 1437 1432 1435 1435 1429 1426 1423 1421 1421 1421 1422 1424 1425 1426 1428 1429 1431 1433 1434 1436 1439 1441 1443 1446 1448 1451 1454 1456 1458 1460 1461 1463 1464 1466 1467 1467 1468 1469 1469 1470 1470 1470 1470 1470 1470 1469 1469 1469 1468 1468 1467 1466 1466 1464 1463 1462 1460 1459 1457 1456 1454
1478 1480 1478 1478 1475 1465 1461 1461 1457 1457 1459 1453 1447 1447 1442 1437 1440 1442 1444 1449 1449 1443 1443 1446 1441 1435 1435 1438 1435 1429 1426 1423 1421 1421 1420 1421 1423 1424 1425 1427 1428 1430 1432 1433 1435 1437 1440 1442 1445 1447 1450 1452 1455 1457 1458 1460 1462 1463 1464 1465 1465 1466 1467 1467 1468 1468 1468 1469 1468 1468 1468 1468 1468 1467 1467 1466 1465 1464 1463 1462 1460 1459 1458 1456 1455 1453
1478 1481 1479 1479 1478 1470 1464 1464 1461 1457 1454 1450 1453 1457 1450 1443 1448 1454 1456 1458 1456 1453 1450 1446 1442 1442 1442 1439 1434 1429 1426 1423 1421 1420 1419 1420 1421 1422 1423 1424 1426 1428 1430 1432 1434 1436 1439 1441 1443 1445 1448 1451 1453 1455 1457 1458 1460 1461 1462 1463 1463 1464 1465 1465 1466 1466 1467 1467 1467 1467 1467 1467 1467 1466 1466 1465 1464 1463 1462 1460 1459 1457 1456 1454 1453 1451
1479 1481 1480 1482 1482 1474 1469 1470 1467 1458 1454 1455 1461 1463 1456 1451 1455 1460 1461 1460 1459 1457 1455 1450 1449 1451 1448 1443 1438 1433 1429 1427 1424 1421 1421 1420 1419 1420 1421 1422 1424 1427 1429 1431 1433 1435 1438 1440 1442 1445 1447 1450 1452 1454 1455 1457 1458 1459 1460 1461 1462 1462 1463 1464 1465 1465 1466 1466 1466 1466 1466 1466 1465 1465 1465 1464 1463 1462 1460 1459 1457 1456 1454 1453 1451 1450
1478 1479 1480 1483 1483 1477 1474 1473 1465 1459 1463 1466 1465 1463 1457 1453 1456 1461 1464 1463 1460 1458 1456 1455 1453 1451 1448 1445 1443 1438 1432 1429 1425 1422 1422 1422 1421 1420 1419 1420 1423 1425 1427 1430 1432 1434 1437 1439 1441 1444 1446 1448 1451 1452 1453 1454 1455 1457 1458 1459 1460 1461 1462 1463 1464 1464 1465 1465 1466 1465 1465 1465 1464 1464 1464 1463 1462 1460 1459 1458 1456 1454 1453 1452 1450 1449
1479 1478 1479 1482 1483 1479 1477 1474 1468 1467 1470 1467 1462 1462 1460 1455 1456 1463 1466 1465 1463 1458 1455 1454 1452 1449 1447 1445 1443 1439 1433 1427 1422 1419 1418 1419 1420 1420 1419 1419 1421 1424 1426 1428 1430 1433 1436 1438 1440 1442 1444 1446 1448 1450 1452 1452 1453 1455 1456 1458 1459 1460 1461 1462 1463 1464 1464 1465 1465 1464 1464 1464 1464 1463 1463 1461 1460 1459 1458 1456 1455 1453 1452 1451 1449 1448
1480 1478 1477 1480 1482 1480 1481 1481 1477 1472 1469 1464 1461 1462 1461 1458 1460 1464 1466 1464 1462 1459 1455 1453 1450 1447 1445 1443 1440 1437 1431 1424 1417 1414 1414 1415 1416 1417 1420 1420 1420 1422 1424 1426 1429 1432 1434 1437 1439 1441 1443 1445 1447 1449 1450 1451 1453 1454 1456 1457 1459 1460 1461 1462 1462 1463 1464 1464 1463 1463 1463 1463 1463 1462 1461 1460 1459 1458 1456 1455 1454 1452 1451 1450 1449 1447
1478 1479 1478 1480 1482 1482 1484 1485 1479 1471 1467 1467 1467 1466 1466 1467 1466 1466 1467 1464 1460 1459 1457 1453 1449 1445 1442 1440 1438 1434 1428 1421 1415 1413 1413 1413 1413 1415 1418 1420 1421 1422 1423 1426 1429 1432 1434 1437 1439 1440 1442 1444 1446 1448 1449 1451 1453 1454 1456 1458 1459 1460 1461 1461 1462 1462 1463 1463 1462 1462 1463 1462 1462 1461 1460 1459 1458 1456 1455 1454 1453 1451 1450 1449 1447 1445
1476 1478 1478 1479 1482 1483 1485 1484 1480 1475 1470 1471 1472 1468 1466 1467 1463 1463 1466 1463 1458 1459 1457 1452 1449 1446 1442 1440 1436 1432 1428 1421 1414 1414 1415 1415 1415 1415 1416 1419 1421 1423 1425 1427 1430 1431 1434 1436 1438 1440 1442 1443 1445 1448 1449 1451 1453 1455 1456 1457 1458 1459 1460 1460 1461 1462 1462 1462 1462 1462 1462 1461 1461 1460 1459 1458 1457 1455 1454 1453 1452 1450 1449 1447 1445 1444
1477 1478 1478 1480 1482 1484 1486 1486 1486 1481 1475 1474 1473 1466 1461 1461 1458 1459 1464 1463 1458 1458 1456 1453 1450 1447 1444 1442 1438 1434 1433 1428 1420 1416 1416 1417 1417 1417 1416 1417 1420 1423 1426 1428 1430 1431 1433 1435 1437 1440 1441 1443 1445 1447 1449 1452 1453 1455 1456 1457 1458 1459 1459 1460 1460 1461 1461 1461 1461 1461 1461 1461 1460 1459 1458 1457 1456 1454 1453 1452 1451 1449 1448 1446 1444 1442
1479 1480 1481 1482 1484 1484 1485 1487 1485 1480 1475 1474 1473 1467 1461 1458 1455 1457 1463 1463 1459 1457 1457 1454 1451 1448 1446 1444 1440 1437 1438 1437 1429 1421 1417 1417 1418 1418 1416 1416 1418 1421 1424 1427 1429 1432 1434 1436 1439 1440 1442 1443 1445 1447 1449 1452 1453 1455 1456 1457 1458 1459 1459 1459 1460 1460 1461 1461 1461 1461 1460 1460 1459 1458 1457 1456 1455 1454 1453 1451 1450 1448 1447 1445 1444 1441
1482 1483 1483 1483 1484 1485 1486 1487 1484 1477 1475 1475 1472 1468 1462 1456 1459 1466 1470 1468 1462 1459 1457 1455 1452 1449 1446 1444 1442 1439 1437 1435 1430 1423 1418 1416 1416 1416 1416 1416 1418 1421 1424 1426 1428 1430 1433 1437 1440 1442 1444 1445 1446 1447 1450 1452 1453 1455 1456 1457 1458 1458 1458 1459 1459 1460 1460 1460 1460 1460 1459 1459 1458 1457 1456 1456 1455 1454 1452 1451 1449 1448 1446 1444 1442 1440
1487 1486 1484 1483 1483 1483 1484 1486 1483 1478 1477 1476 1472 1467 1462 1462 1471 1477 1474 1469 1465 1461 1458 1455 1453 1450 1447 1444 1442 1439 1433 1429 1427 1423 1419 1415 1415 1415 1415 1414 1417 1421 1424 1427 1429 1431 1433 1436 1441 1446 1447 1447 1448 1449 1450 1452 1454 1455 1456 1457 1458 1458 1458 1458 1458 1459 1459 1459 1459 1459 1458 1458 1457 1456 1456 1455 1454 1453 1452 1450 1448 1446 1445 1443 1441 1438
1491 1489 1486 1483 1482 1482 1482 1484 1485 1482 1479 1476 1473 1471 1469 1472 1478 1477 1470 1467 1466 1462 1459 1456 1453 1451 1448 1443 1439 1436 1431 1427 1424 1422 1419 1417 1415 1415 1415 1414 1416 1419 1423 1426 1429 1433 1435 1437 1442 1448 1450 1450 1451 1451 1451 1452 1454 1455 1456 1457 1457 1458 1458 1457 1458 1458 1458 1458 1458 1458 1457 1457 1456 1455 1455 1454 1453 1452 1451 1449 1447 1445 1443 1441 1439 1437
1490 1491 1492 1488 1485 1484 1485 1485 1485 1484 1481 1478 1477 1477 1477 1477 1477 1475 1470 1467 1464 1462 1460 1456 1452 1450 1448 1443 1439 1435 1431 1427 1425 1423 1421 1420 1418 1417 1415 1414 1415 1417 1420 1423 1427 1432 1436 1440 1445 1450 1452 1452 1453 1453 1453 1453 1454 1454 1456 1457 1457 1457 1457 1457 1457 1457 1457 1457 1457 1457 1456 1456 1455 1455 1454 1453 1452 1451 1450 1448 1446 1444 1442 1439 1437 1435
1489 1491 1494 1493 1489 1488 1487 1485 1483 1482 1481 1479 1478 1477 1477 1476 1474 1472 1471 1467 1463 1461 1460 1456 1452 1449 1446 1443 1440 1436 1431 1428 1426 1424 1423 1422 1421 1419 1415 1414 1415 1416 1418 1421 1425 1429 1434 1438 1444 1450 1453 1455 1456 1456 1455 1455 1455 1455 1456 1456 1457 1457 1457 1457 1457 1457 1457 1457 1456 1456 1455 1455 1455 1454 1453 1452 1451 1450 1448 1447 1445 1442 1440 1438 1436 1434
1489 1489 1492 1493 1491 1489 1485 1483 1482 1481 1480 1479 1478 1477 1476 1474 1472 1470 1468 1465 1462 1460 1458 1456 1452 1448 1445 1443 1440 1436 1432 1429 1427 1425 1424 1424 1423 1421 1418 1415 1416 1418 1419 1421 1424 1427 1430 1434 1440 1446 1452 1456 1460 1461 1459 1457 1456 1456 1456 1456 1457 1457 1457 1457 1457 1456 1456 1456 1456 1455 1455 1455 1454 1453 1452 1451 1450 1448 1447 1445 1443 1441 1439 1437 1435 1433
1489 1489 1489 1490 1491 1492 1488 1483 1481 1481 1479 1478 1477 1476 1474 1473 1470 1468 1466 1463 1460 1458 1456 1454 1451 1447 1445 1443 1439 1436 1432 1430 1428 1427 1426 1425 1424 1422 1420 1417 1417 1419 1421 1422 1424 1425 1427 1431 1437 1442 1447 1453 1460 1464 1464 1460 1458 1457 1456 1456 1457 1457 1457 1457 1457 1456 1456 1455 1455 1455 1454 1454 1453 1453 1452 1451 1449 1448 1446 1445 1443 1440 1438 1436 1435 1433
1490 1490 1489 1488 1489 1491 1489 1484 1482 1480 1478 1477 1477 1475 1473 1472 1470 1467 1465 1462 1459 1456 1454 1453 1450 1447 1444 1442 1440 1436 1432 1430 1429 1428 1427 1427 1426 1424 1423 1421 1419 1420 1422 1424 1425 1426 1426 1428 1433 1438 1442 1447 1455 1463 1466 1463 1460 1458 1457 1457 1457 1457 1457 1457 1457 1456 1456 1455 1455 1454 1454 1453 1453 1452 1451 1450 1449 1447 1446 1444 1442 1440 1438 1436 1434 1432
1490 1491 1490 1488 1488 1488 1486 1484 1482 1480 1477 1476 1476 1475 1473 1471 1469 1466 1464 1461 1458 1455 1453 1451 1449 1447 1445 1442 1440 1436 1432 1430 1429 1429 1428 1429 1428 1427 1426 1425 1423 1422 1423 1425 1427 1429 1429 1429 1432 1436 1440 1444 1450 1458 1465 1465 1461 1459 1458 1458 1457 1458 1458 1457 1457 1456 1456 1455 1455 1454 1453 1453 1452 1452 1451 1450 1449 1447 1445 1443 1441 1439 1438 1436 1434 1432
1491 1490 1488 1488 1489 1488 1486 1484 1483 1482 1479 1476 1475 1474 1472 1470 1468 1466 1464 1461 1459 1456 1453 1450 1447 1445 1443 1442 1440 1436 1433 1431 1430 1429 1429 1429 1429 1429 1428 1427 1426 1425 1425 1427 1430 1432 1433 1434 1435 1437 1440 1442 1446 1454 1462 1465 1462 1460 1459 1458 1458 1458 1458 1457 1457 1457 1456 1455 1454 1453 1453 1452 1452 1451 1451 1449 1448 1447 1446 1444 1441 1439 1438 1437 1435 1432
1489 1488 1487 1487 1487 1485 1483 1482 1482 1481 1479 1475 1473 1472 1471 1469 1468 1465 1463 1461 1459 1456 1454 1452 1448 1443 1440 1439 1438 1436 1434 1431 1430 1430 1430 1429 1430 1430 1430 1430 1429 1428 1428 1429 1432 1434 1436 1438 1439 1440 1440 1441 1444 1452 1460 1463 1462 1460 1459 1459 1458 1458 1458 1458 1457 1457 1456 1455 1454 1453 1452 1452 1452 1451 1450 1449 1448 1446 1445 1444 1442 1439 1437 1436 1434 1433